Location: Unspecified
(0.0000°N, 0.0000°E)
Time: 15:47:55
(UTC+00:00)

FENGYUN 1C DEB - Pass Details

Date: 22 February 2026
Orbit: 814 x 927 km, 98.2° (Epoch: 15 July)

Event Time Altitude Azimuth Distance (km) Brightness Sun altitude
Rises 20:24:32 0° 204° (SSW) 3,412 ? -32.2°
Reaches altitude 10° 20:28:10 10° 229° (SW) 2,489 ? -33.1°
Maximum altitude 20:30:48 14° 258° (WSW) 2,246 ? -33.8°
Drops below altitude 10° 20:33:28 10° 287° (WNW) 2,507 ? -34.4°
Sets 20:37:11 0° 312° (NW) 3,455 ? -35.3°
